{"data":{"norad_id":65408,"epoch":"2026-09-20T13:13:38.405280Z","epoch_age_seconds":110451,"freshness":"FRESH","line1":"1 65408U 25192E   26263.55113895  .00022365  00000+0  67081-3 0  9990","line2":"2 65408  53.1560  45.4488 0000805  63.8273 296.2813 15.34412192 59243","mean_motion":15.34412192,"eccentricity":8.05e-5,"inclination_deg":53.156,"raan_deg":45.4488,"arg_perigee_deg":63.8273,"mean_anomaly_deg":296.2813,"bstar":0.00067081,"rev_number":5924,"period_min":93.847012393916,"perigee_km":462.11631853144,"apogee_km":463.21768797596,"semimajor_km":6840.8040032537,"source":"CELESTRAK","updated_at":"2026-09-21T09:00:35.603074Z"}}